When you browse on this site, cookies collect data to enhance your experience and personalize the content and advertising you see.
Visit our Privacy Policy to learn more. By continuing to use the site, you agree to this use of cookies and data.
  • în România
  • Lista ţărilor
  • Pe 7 zile
  • Temperatura apei
  • Hartă satelitară
  • Meteo pe hartă
  • Widget-uri
  • user-avatar
    Intrare

    Meteo pe oră la Morobe

    Astăzi, 25 Mai, Sâmbătă

    Timp Temperatura Precipitaţii Vânt Presiune Umiditate
    00:00 +27°C° 0.6 mm 2 m/s 759 mmHg 91%
    01:00 +27°C° 0.6 mm 2 m/s 759 mmHg 91%
    02:00 +27°C° 0 mm 2 m/s 759 mmHg 90%
    03:00 +26°C° 0 mm 2 m/s 759 mmHg 88%
    04:00 +26°C° 0 mm 1 m/s 759 mmHg 88%
    05:00 +27°C° 0 mm 1 m/s 759 mmHg 86%
    06:00 +27°C° 0 mm 1 m/s 759 mmHg 85%
    07:00 +27°C° 0 mm 1 m/s 759 mmHg 84%
    08:00 +29°C° 0 mm 1 m/s 759 mmHg 76%
    09:00 +31°C° 0 mm 1 m/s 759 mmHg 69%
    10:00 +33°C° 0 mm 1 m/s 759 mmHg 62%
    11:00 +33°C° 0 mm 1 m/s 759 mmHg 60%
    12:00 +35°C° 0 mm 2 m/s 758 mmHg 59%
    13:00 +35°C° 0 mm 3 m/s 758 mmHg 57%
    14:00 +34°C° 0.1 mm 3 m/s 757 mmHg 64%
    15:00 +33°C° 0.1 mm 3 m/s 757 mmHg 71%
    16:00 +31°C° 0.1 mm 3 m/s 757 mmHg 78%
    17:00 +30°C° 1.6 mm 2 m/s 757 mmHg 82%
    18:00 +29°C° 1.6 mm 2 m/s 758 mmHg 87%
    19:00 +27°C° 1.6 mm 1 m/s 758 mmHg 91%
    20:00 +27°C° 0.6 mm 2 m/s 758 mmHg 91%
    21:00 +27°C° 0.6 mm 2 m/s 759 mmHg 90%
    22:00 +27°C° 0.6 mm 2 m/s 759 mmHg 90%
    23:00 +27°C° 0.1 mm 2 m/s 759 mmHg 89%

    Mâine, 26 Mai, Duminică

    Timp Temperatura Precipitaţii Vânt Presiune Umiditate
    00:00 +27°C° 0.1 mm 2 m/s 759 mmHg 88%
    01:00 +26°C° 0.1 mm 2 m/s 759 mmHg 87%
    02:00 +26°C° 0.1 mm 2 m/s 759 mmHg 86%
    03:00 +26°C° 0.1 mm 2 m/s 759 mmHg 85%
    04:00 +26°C° 0.1 mm 1 m/s 759 mmHg 85%
    05:00 +26°C° 0.1 mm 2 m/s 759 mmHg 84%
    06:00 +26°C° 0.1 mm 2 m/s 759 mmHg 83%
    07:00 +26°C° 0.1 mm 2 m/s 759 mmHg 81%
    08:00 +29°C° 0 mm 1 m/s 759 mmHg 73%
    09:00 +31°C° 0 mm 1 m/s 759 mmHg 64%
    10:00 +31°C° 0 mm 0 m/s 759 mmHg 55%
    11:00 +34°C° 0 mm 1 m/s 759 mmHg 55%
    12:00 +35°C° 0 mm 2 m/s 758 mmHg 54%
    13:00 +35°C° 0 mm 2 m/s 758 mmHg 54%
    14:00 +34°C° 0.1 mm 2 m/s 757 mmHg 59%
    15:00 +33°C° 0.1 mm 3 m/s 757 mmHg 65%
    16:00 +33°C° 0.1 mm 3 m/s 757 mmHg 71%
    17:00 +30°C° 0.1 mm 2 m/s 757 mmHg 77%
    18:00 +29°C° 0.1 mm 1 m/s 758 mmHg 84%
    19:00 +28°C° 0.1 mm 1 m/s 758 mmHg 91%
    20:00 +27°C° 0.5 mm 1 m/s 758 mmHg 91%
    21:00 +27°C° 0.5 mm 1 m/s 759 mmHg 91%
    22:00 +27°C° 0.5 mm 2 m/s 759 mmHg 91%
    23:00 +27°C° 0.5 mm 2 m/s 759 mmHg 89%

    Poimâine, 27 Mai, Luni

    Timp Temperatura Precipitaţii Vânt Presiune Umiditate
    00:00 +27°C° 0.5 mm 2 m/s 759 mmHg 87%
    01:00 +27°C° 0.5 mm 2 m/s 759 mmHg 85%
    02:00 +27°C° 0.4 mm 1 m/s 758 mmHg 84%
    03:00 +26°C° 0.4 mm 1 m/s 758 mmHg 82%
    04:00 +26°C° 0.4 mm 1 m/s 758 mmHg 81%
    05:00 +26°C° 0.3 mm 1 m/s 758 mmHg 79%
    06:00 +27°C° 0.3 mm 1 m/s 758 mmHg 78%
    07:00 +27°C° 0.3 mm 1 m/s 759 mmHg 76%
    08:00 +29°C° 0.1 mm 1 m/s 759 mmHg 70%
    09:00 +31°C° 0.1 mm 1 m/s 759 mmHg 64%
    10:00 +32°C° 0.1 mm 1 m/s 759 mmHg 58%
    11:00 +33°C° 0.1 mm 1 m/s 759 mmHg 59%
    12:00 +34°C° 0.1 mm 2 m/s 758 mmHg 60%
    13:00 +34°C° 0.1 mm 3 m/s 757 mmHg 61%
    14:00 +33°C° 0.4 mm 3 m/s 757 mmHg 68%
    15:00 +31°C° 0.4 mm 3 m/s 757 mmHg 76%
    16:00 +30°C° 0.4 mm 3 m/s 756 mmHg 83%
    17:00 +29°C° 0.6 mm 3 m/s 757 mmHg 86%
    18:00 +28°C° 0.6 mm 2 m/s 758 mmHg 90%
    19:00 +27°C° 0.6 mm 2 m/s 758 mmHg 93%
    20:00 +27°C° 0.4 mm 2 m/s 758 mmHg 93%
    21:00 +27°C° 0.4 mm 2 m/s 759 mmHg 92%
    22:00 +27°C° 0.4 mm 2 m/s 759 mmHg 92%
    23:00 +27°C° 0.2 mm 2 m/s 759 mmHg 91%

    28 Mai, Marţi

    Timp Temperatura Precipitaţii Vânt Presiune Umiditate
    00:00 +26°C° 0.2 mm 2 m/s 759 mmHg 91%
    01:00 +26°C° 0.2 mm 2 m/s 758 mmHg 90%
    02:00 +26°C° 0.1 mm 2 m/s 758 mmHg 89%
    03:00 +26°C° 0.1 mm 2 m/s 758 mmHg 88%
    04:00 +26°C° 0.1 mm 2 m/s 758 mmHg 86%
    05:00 +26°C° 0 mm 2 m/s 758 mmHg 85%
    06:00 +26°C° 0 mm 2 m/s 759 mmHg 83%
    07:00 +27°C° 0 mm 2 m/s 759 mmHg 81%
    08:00 +29°C° 0.2 mm 2 m/s 759 mmHg 73%
    09:00 +31°C° 0.2 mm 2 m/s 760 mmHg 64%
    10:00 +34°C° 0.2 mm 2 m/s 760 mmHg 56%
    11:00 +32°C° 1.3 mm 2 m/s 759 mmHg 61%
    12:00 +33°C° 1.3 mm 3 m/s 759 mmHg 67%
    13:00 +32°C° 1.3 mm 4 m/s 758 mmHg 72%
    14:00 +30°C° 1 mm 4 m/s 758 mmHg 77%
    15:00 +29°C° 1 mm 3 m/s 757 mmHg 82%
    16:00 +28°C° 1 mm 3 m/s 757 mmHg 87%
    17:00 +28°C° 0.1 mm 3 m/s 757 mmHg 89%
    18:00 +27°C° 0.1 mm 2 m/s 758 mmHg 91%
    19:00 +26°C° 0.1 mm 2 m/s 758 mmHg 92%
    20:00 +26°C° 0 mm 2 m/s 759 mmHg 91%
    21:00 +26°C° 0 mm 2 m/s 759 mmHg 89%
    22:00 +26°C° 0 mm 3 m/s 760 mmHg 88%
    23:00 +26°C° 0.1 mm 2 m/s 759 mmHg 86%

    29 Mai, Miercuri

    Timp Temperatura Precipitaţii Vânt Presiune Umiditate
    00:00 +26°C° 0.1 mm 2 m/s 759 mmHg 85%
    01:00 +26°C° 0.1 mm 2 m/s 759 mmHg 83%
    02:00 +26°C° 0.1 mm 2 m/s 759 mmHg 82%
    03:00 +26°C° 0.1 mm 2 m/s 758 mmHg 80%
    04:00 +26°C° 0.1 mm 2 m/s 758 mmHg 79%
    05:00 +26°C° 0 mm 2 m/s 758 mmHg 77%
    06:00 +26°C° 0 mm 2 m/s 759 mmHg 76%
    07:00 +26°C° 0 mm 2 m/s 759 mmHg 74%
    08:00 +29°C° 0 mm 1 m/s 760 mmHg 66%
    09:00 +31°C° 0 mm 1 m/s 760 mmHg 58%
    10:00 +33°C° 0 mm 1 m/s 760 mmHg 50%
    11:00 +33°C° 0 mm 1 m/s 759 mmHg 51%
    12:00 +34°C° 0 mm 2 m/s 758 mmHg 52%
    13:00 +34°C° 0 mm 2 m/s 757 mmHg 53%
    14:00 +34°C° 0 mm 2 m/s 757 mmHg 57%
    15:00 +33°C° 0 mm 3 m/s 757 mmHg 60%
    16:00 +33°C° 0 mm 3 m/s 756 mmHg 64%
    17:00 +30°C° 0.1 mm 2 m/s 757 mmHg 72%
    18:00 +29°C° 0.1 mm 2 m/s 758 mmHg 80%
    19:00 +27°C° 0.1 mm 1 m/s 758 mmHg 88%
    20:00 +27°C° 0.8 mm 1 m/s 759 mmHg 88%
    21:00 +27°C° 0.8 mm 2 m/s 759 mmHg 88%
    22:00 +27°C° 0.8 mm 2 m/s 759 mmHg 88%
    23:00 +27°C° 0.1 mm 2 m/s 759 mmHg 85%

    30 Mai, Joi

    Timp Temperatura Precipitaţii Vânt Presiune Umiditate
    00:00 +27°C° 0.1 mm 2 m/s 759 mmHg 83%
    01:00 +27°C° 0.1 mm 2 m/s 758 mmHg 80%
    02:00 +27°C° 0 mm 2 m/s 758 mmHg 77%
    03:00 +27°C° 0 mm 2 m/s 758 mmHg 75%
    04:00 +26°C° 0 mm 1 m/s 758 mmHg 72%
    05:00 +27°C° 0 mm 1 m/s 758 mmHg 71%
    06:00 +27°C° 0 mm 1 m/s 759 mmHg 69%
    07:00 +27°C° 0 mm 1 m/s 759 mmHg 68%
    08:00 +29°C° 0 mm 1 m/s 759 mmHg 63%
    09:00 +31°C° 0 mm 1 m/s 759 mmHg 57%
    10:00 +33°C° 0 mm 1 m/s 759 mmHg 52%
    11:00 +34°C° 0 mm 1 m/s 759 mmHg 53%
    12:00 +35°C° 0 mm 2 m/s 758 mmHg 54%
    13:00 +35°C° 0 mm 2 m/s 757 mmHg 54%
    14:00 +34°C° 0 mm 3 m/s 757 mmHg 59%
    15:00 +34°C° 0 mm 3 m/s 757 mmHg 63%
    16:00 +33°C° 0 mm 3 m/s 756 mmHg 67%
    17:00 +31°C° 0.1 mm 2 m/s 757 mmHg 75%
    18:00 +29°C° 0.1 mm 2 m/s 758 mmHg 82%
    19:00 +28°C° 0.1 mm 1 m/s 758 mmHg 90%
    20:00 +28°C° 1.4 mm 1 m/s 759 mmHg 90%
    21:00 +27°C° 1.4 mm 2 m/s 759 mmHg 90%
    22:00 +27°C° 1.4 mm 2 m/s 759 mmHg 90%
    23:00 +27°C° 0.6 mm 2 m/s 759 mmHg 88%
    Arată mai mult